When you browse on this site, cookies collect data to enhance your experience and personalize the content and advertising you see.
Visit our Privacy Policy to learn more. By continuing to use the site, you agree to this use of cookies and data.
  • Em Portugal
  • Lista de países
  • Para 7 dias
  • Temperatura da água
  • Mapas de satélite
  • Mapa do tempo
  • Widgets de tempo
  • user-avatar
    Iniciar Sessão

    Previsão horária em Temnoe

    Hoje, 18 Abril, Quinta-feira

    Tempo Temperatura Precipitação Vento Pressão Humidade
    00:00 -6°C° 0 mm 1 m/s 756 mmHg 73%
    01:00 -6°C° 0 mm 1 m/s 756 mmHg 74%
    02:00 -6°C° 0 mm 1 m/s 756 mmHg 74%
    03:00 -6°C° 0 mm 0 m/s 756 mmHg 75%
    04:00 -9°C° 0 mm 0 m/s 756 mmHg 78%
    05:00 -8°C° 0 mm 1 m/s 756 mmHg 75%
    06:00 -7°C° 0 mm 1 m/s 756 mmHg 72%
    07:00 -4°C° 0 mm 1 m/s 756 mmHg 70%
    08:00 -3°C° 0 mm 1 m/s 756 mmHg 65%
    09:00 -1°C° 0 mm 1 m/s 756 mmHg 61%
    10:00 -2°C° 0 mm 2 m/s 756 mmHg 55%
    11:00 -1°C° 0 mm 2 m/s 756 mmHg 54%
    12:00 +1°C° 0 mm 2 m/s 756 mmHg 52%
    13:00 +1°C° 0 mm 2 m/s 756 mmHg 51%
    14:00 +2°C° 0 mm 2 m/s 755 mmHg 50%
    15:00 +2°C° 0 mm 2 m/s 755 mmHg 48%
    16:00 +2°C° 0 mm 2 m/s 755 mmHg 47%
    17:00 +1°C° 0 mm 2 m/s 755 mmHg 52%
    18:00 +1°C° 0 mm 1 m/s 754 mmHg 56%
    19:00 -1°C° 0 mm 0 m/s 754 mmHg 61%
    20:00 -2°C° 0 mm 0 m/s 754 mmHg 62%
    21:00 -3°C° 0 mm 0 m/s 754 mmHg 64%
    22:00 -3°C° 0 mm 0 m/s 754 mmHg 66%
    23:00 -3°C° 0 mm 0 m/s 754 mmHg 68%

    Amanhã, 19 Abril, Sexta-feira

    Tempo Temperatura Precipitação Vento Pressão Humidade
    00:00 -4°C° 0 mm 0 m/s 754 mmHg 69%
    01:00 -4°C° 0 mm 0 m/s 754 mmHg 71%
    02:00 -4°C° 0 mm 0 m/s 754 mmHg 73%
    03:00 -4°C° 0 mm 0 m/s 754 mmHg 74%
    04:00 -4°C° 0 mm 0 m/s 754 mmHg 76%
    05:00 -2°C° 0 mm 1 m/s 754 mmHg 75%
    06:00 -2°C° 0 mm 1 m/s 753 mmHg 74%
    07:00 -1°C° 0 mm 1 m/s 753 mmHg 73%
    08:00 +1°C° 0 mm 1 m/s 753 mmHg 68%
    09:00 +1°C° 0 mm 2 m/s 753 mmHg 64%
    10:00 +2°C° 0 mm 2 m/s 752 mmHg 60%
    11:00 +3°C° 0 mm 2 m/s 752 mmHg 57%
    12:00 +4°C° 0 mm 2 m/s 752 mmHg 54%
    13:00 +4°C° 0 mm 2 m/s 751 mmHg 51%
    14:00 +5°C° 0 mm 2 m/s 751 mmHg 51%
    15:00 +5°C° 0 mm 2 m/s 751 mmHg 50%
    16:00 +5°C° 0 mm 2 m/s 751 mmHg 50%
    17:00 +4°C° 0 mm 2 m/s 750 mmHg 56%
    18:00 +3°C° 0 mm 2 m/s 750 mmHg 62%
    19:00 +2°C° 0 mm 2 m/s 750 mmHg 68%
    20:00 +2°C° 0 mm 2 m/s 750 mmHg 71%
    21:00 +1°C° 0 mm 2 m/s 750 mmHg 75%
    22:00 +1°C° 0 mm 2 m/s 750 mmHg 78%
    23:00 +1°C° 0 mm 2 m/s 750 mmHg 81%

    Depois de amanhã, 20 Abril, Sábado

    Tempo Temperatura Precipitação Vento Pressão Humidade
    00:00 +1°C° 0 mm 2 m/s 750 mmHg 83%
    01:00 -1°C° 0 mm 2 m/s 750 mmHg 86%
    02:00 -1°C° 0 mm 2 m/s 750 mmHg 88%
    03:00 +1°C° 0 mm 1 m/s 750 mmHg 91%
    04:00 0°C° 0 mm 1 m/s 750 mmHg 93%
    05:00 +1°C° 0 mm 1 m/s 750 mmHg 90%
    06:00 +1°C° 0 mm 2 m/s 750 mmHg 88%
    07:00 +1°C° 0 mm 2 m/s 750 mmHg 85%
    08:00 +2°C° 0 mm 2 m/s 750 mmHg 82%
    09:00 +3°C° 0 mm 2 m/s 750 mmHg 78%
    10:00 +3°C° 0 mm 3 m/s 750 mmHg 75%
    11:00 +4°C° 0.1 mm 3 m/s 750 mmHg 73%
    12:00 +4°C° 0.1 mm 3 m/s 750 mmHg 70%
    13:00 +5°C° 0.1 mm 3 m/s 750 mmHg 68%
    14:00 +5°C° 0.1 mm 3 m/s 750 mmHg 68%
    15:00 +5°C° 0.1 mm 3 m/s 750 mmHg 68%
    16:00 +5°C° 0.1 mm 3 m/s 750 mmHg 68%
    17:00 +5°C° 0 mm 2 m/s 751 mmHg 72%
    18:00 +5°C° 0 mm 2 m/s 751 mmHg 77%
    19:00 +5°C° 0 mm 1 m/s 751 mmHg 81%
    20:00 +4°C° 0 mm 1 m/s 751 mmHg 84%
    21:00 +3°C° 0 mm 1 m/s 751 mmHg 86%
    22:00 +2°C° 0 mm 1 m/s 752 mmHg 89%
    23:00 +2°C° 0 mm 1 m/s 752 mmHg 89%

    21 Abril, Domingo

    Tempo Temperatura Precipitação Vento Pressão Humidade
    00:00 +1°C° 0 mm 1 m/s 752 mmHg 89%
    01:00 +1°C° 0 mm 1 m/s 752 mmHg 89%
    02:00 +1°C° 0 mm 1 m/s 752 mmHg 90%
    03:00 +1°C° 0 mm 1 m/s 752 mmHg 90%
    04:00 +1°C° 0 mm 1 m/s 752 mmHg 90%
    05:00 +2°C° 0 mm 1 m/s 752 mmHg 89%
    06:00 +3°C° 0 mm 1 m/s 752 mmHg 88%
    07:00 +3°C° 0 mm 1 m/s 752 mmHg 86%
    08:00 +4°C° 0 mm 2 m/s 752 mmHg 80%
    09:00 +5°C° 0 mm 2 m/s 752 mmHg 74%
    10:00 +5°C° 0 mm 3 m/s 751 mmHg 68%
    11:00 +7°C° 0 mm 3 m/s 751 mmHg 65%
    12:00 +7°C° 0 mm 3 m/s 751 mmHg 62%
    13:00 +6°C° 0 mm 4 m/s 751 mmHg 59%
    14:00 +6°C° 0 mm 4 m/s 750 mmHg 61%
    15:00 +6°C° 0 mm 4 m/s 750 mmHg 62%
    16:00 +5°C° 0 mm 4 m/s 750 mmHg 64%
    17:00 +5°C° 0 mm 4 m/s 750 mmHg 67%
    18:00 +4°C° 0 mm 3 m/s 750 mmHg 71%
    19:00 +3°C° 0 mm 3 m/s 750 mmHg 74%
    20:00 +4°C° 0 mm 2 m/s 750 mmHg 78%
    21:00 +3°C° 0 mm 2 m/s 750 mmHg 82%
    22:00 +2°C° 0 mm 2 m/s 750 mmHg 86%
    23:00 +2°C° 0 mm 2 m/s 750 mmHg 87%

    22 Abril, Segunda-feira

    Tempo Temperatura Precipitação Vento Pressão Humidade
    00:00 +2°C° 0 mm 2 m/s 750 mmHg 88%
    01:00 +2°C° 0 mm 2 m/s 749 mmHg 89%
    02:00 +2°C° 0.1 mm 2 m/s 749 mmHg 90%
    03:00 +2°C° 0.1 mm 2 m/s 749 mmHg 92%
    04:00 +3°C° 0.1 mm 2 m/s 749 mmHg 93%
    05:00 +3°C° 0.1 mm 2 m/s 750 mmHg 92%
    06:00 +4°C° 0.1 mm 2 m/s 750 mmHg 92%
    07:00 +3°C° 0.1 mm 3 m/s 750 mmHg 91%
    08:00 +4°C° 0 mm 3 m/s 750 mmHg 86%
    09:00 +4°C° 0 mm 3 m/s 750 mmHg 80%
    10:00 +5°C° 0 mm 3 m/s 750 mmHg 74%
    11:00 +7°C° 0 mm 3 m/s 751 mmHg 71%
    12:00 +7°C° 0 mm 3 m/s 751 mmHg 68%
    13:00 +7°C° 0 mm 3 m/s 751 mmHg 65%
    14:00 +7°C° 0 mm 2 m/s 751 mmHg 64%
    15:00 +7°C° 0 mm 2 m/s 751 mmHg 64%
    16:00 +7°C° 0 mm 2 m/s 751 mmHg 63%
    17:00 +7°C° 0 mm 2 m/s 751 mmHg 66%
    18:00 +7°C° 0 mm 1 m/s 751 mmHg 69%
    19:00 +7°C° 0 mm 1 m/s 751 mmHg 72%
    20:00 +6°C° 0 mm 0 m/s 751 mmHg 73%
    21:00 +5°C° 0 mm 0 m/s 751 mmHg 74%
    22:00 +5°C° 0 mm 0 m/s 751 mmHg 75%
    23:00 +5°C° 0 mm 0 m/s 751 mmHg 76%

    23 Abril, Terça-feira

    Tempo Temperatura Precipitação Vento Pressão Humidade
    00:00 +6°C° 0 mm 1 m/s 751 mmHg 78%
    01:00 +6°C° 0 mm 1 m/s 751 mmHg 79%
    02:00 +6°C° 0 mm 1 m/s 751 mmHg 82%
    03:00 +5°C° 0 mm 1 m/s 750 mmHg 84%
    04:00 +4°C° 0 mm 2 m/s 750 mmHg 87%
    05:00 +5°C° 0.1 mm 2 m/s 750 mmHg 88%
    06:00 +5°C° 0.1 mm 2 m/s 750 mmHg 89%
    07:00 +6°C° 0.1 mm 2 m/s 750 mmHg 90%
    08:00 +7°C° 0.1 mm 3 m/s 750 mmHg 83%
    09:00 +9°C° 0.1 mm 3 m/s 749 mmHg 75%
    10:00 +11°C° 0.1 mm 3 m/s 749 mmHg 68%
    11:00 +11°C° 0 mm 3 m/s 749 mmHg 67%
    12:00 +11°C° 0 mm 4 m/s 749 mmHg 65%
    13:00 +12°C° 0 mm 4 m/s 748 mmHg 64%
    14:00 +12°C° 0.3 mm 4 m/s 748 mmHg 64%
    15:00 +12°C° 0.3 mm 3 m/s 748 mmHg 64%
    16:00 +12°C° 0.3 mm 3 m/s 748 mmHg 64%
    17:00 +11°C° 0.2 mm 3 m/s 748 mmHg 67%
    18:00 +10°C° 0.2 mm 2 m/s 747 mmHg 70%
    19:00 +10°C° 0.2 mm 2 m/s 747 mmHg 73%
    20:00 +9°C° 0 mm 2 m/s 748 mmHg 77%
    21:00 +8°C° 0 mm 2 m/s 748 mmHg 81%
    22:00 +7°C° 0 mm 2 m/s 748 mmHg 85%
    23:00 +6°C° 0 mm 2 m/s 748 mmHg 85%
    Mostrar mais